Weather observations for the past three days for
Eastern WV Regional Airport/Shepherd Field
Imperial (Metric)
Date Time (edt) Wind (mph) Vis. (mi.) Weather Sky Cond. Temperature (ºF) Relative Humidity Wind Chill (°F) Heat Index (°F) Pressure Precipitation (in)
Air Dwpt 6 hour altimeter (in) sea level (mb) 1 hr 3 hr 6 hr
Max. Min.
22 11:53 SW 7 10.00 Partly Cloudy SCT050 91.9 69.1 47% 97 30.03 1016.4
22 10:53 Vrbl 5 10.00 Fair CLR 89.1 70 53% 94 30.05 1017.0
22 09:53 Vrbl 3 10.00 Fair CLR 86 70 59% 91 30.07 1017.7
22 08:53 Calm 10.00 Fair CLR 81 70 69% 84 30.08 1018.0
22 07:53 W 3 10.00 Fair CLR 75 69.1 75 66.9 82% 75 30.08 1018.1
22 06:53 Calm 10.00 Fair CLR 71.1 68 90% 30.08 1017.9
22 05:53 Calm 10.00 Fair CLR 68 66.9 96% 30.08 1017.9
22 04:53 Calm 10.00 Fair CLR 69.1 66.9 93% 30.07 1017.7
22 03:53 Calm 10.00 Fair CLR 71.1 68 90% 30.07 1017.6
22 02:53 Calm 10.00 Fair CLR 72 66.9 84% 30.07 1017.6
22 01:53 Calm 10.00 Fair CLR 71.1 68 87.1 71.1 90% 30.08 1018.0
22 00:53 S 3 10.00 A Few Clouds FEW065 73.9 68 82% 30.09 1018.2
21 23:53 Calm 10.00 Fair CLR 75 68 79% 76 30.1 1018.6
21 22:53 Calm 10.00 Fair CLR 75.9 68 77% 77 30.1 1018.6
21 21:53 Calm 10.00 Fair CLR 81 66.9 62% 83 30.09 1018.3
21 20:53 S 3 10.00 Fair CLR 82 68 63% 85 30.08 1018.1
21 19:53 S 5 10.00 Fair CLR 87.1 66.9 93.9 87.1 51% 90 30.07 1017.8
21 18:53 S 5 10.00 Fair CLR 90 66.9 47% 93 30.08 1017.8
21 17:53 SE 5 10.00 Fair CLR 91 66 44% 94 30.08 1018.1
21 16:53 SE 5 10.00 A Few Clouds FEW070 91.9 66 43% 95 30.1 1018.6
21 15:53 SE 7 10.00 A Few Clouds FEW065 91.9 66.9 44% 95 30.12 1019.2
21 14:53 SE 8 10.00 Fair CLR 91 66.9 45% 94 30.14 1019.9
21 13:53 S 7 10.00 Fair CLR 91 66.9 91 72 45% 94 30.16 1020.8
21 12:53 Vrbl 5 10.00 Fair CLR 89.1 66 47% 92 30.19 1021.7
21 11:53 Vrbl 5 10.00 Fair CLR 86 66.9 53% 89 30.21 1022.3
21 10:53 SE 3 10.00 Fair CLR 82.9 66.9 59% 86 30.22 1022.7
21 09:53 Calm 10.00 Fair CLR 80.1 66.9 64% 82 30.22 1022.9
21 08:53 SW 3 10.00 Fair CLR 77 66.9 71% 79 30.23 1023.0
21 07:53 Calm 10.00 Fair CLR 71.1 66.9 71.1 64 87% 30.23 1023.0
21 06:53 Calm 10.00 Fair CLR 68 66 93% 30.23 1023.0
21 05:53 Calm 10.00 Fair CLR 64 64 100% 30.22 1023.0
21 04:53 Calm 10.00 Fair CLR 64 63 96% 30.22 1022.8
21 03:53 Calm 10.00 Fair CLR 64.9 64 97% 30.22 1022.9
21 02:53 Calm 10.00 Fair CLR 66 64 93% 30.23 1023.2
21 01:53 Calm 10.00 Fair CLR 68 64.9 84 66.9 90% 30.24 1023.3
21 00:53 Calm 10.00 Fair CLR 69.1 64.9 87% 30.24 1023.5
20 23:53 S 3 10.00 Fair CLR 69.1 64.9 87% 30.25 1023.8
20 22:53 Calm 10.00 Fair CLR 71.1 66 84% 30.25 1023.9
20 21:53 SE 3 10.00 Fair CLR 75 64.9 71% 77 30.24 1023.4
20 20:53 SE 3 10.00 Fair CLR 78.1 66 67% 80 30.23 1023.1
20 19:53 S 5 10.00 Fair CLR 84 64.9 89.1 84 53% 86 30.23 1023.0
20 18:53 SE 5 10.00 Fair CLR 87.1 64 46% 88 30.23 1023.2
20 17:53 Vrbl 6 10.00 Fair CLR 88 64 45% 89 30.24 1023.4
20 16:53 SE 5 10.00 Fair CLR 88 64 45% 89 30.25 1024.0
20 15:53 Vrbl 3 10.00 Fair CLR 88 63 43% 89 30.27 1024.7
20 14:53 Vrbl 3 10.00 Fair CLR 87.1 64 46% 88 30.29 1025.3
20 13:53 Vrbl 6 10.00 Fair CLR 87.1 66 88 71.1 50% 89 30.3 1025.6
20 12:53 S 6 10.00 Fair CLR 86 64 48% 87 30.32 1026.3
20 11:53 E 5 10.00 Fair CLR 84 66 55% 86 30.33 1026.7
20 10:53 Vrbl 3 10.00 Fair CLR 80.1 66 62% 82 30.34 1026.8
20 09:53 S 3 10.00 Fair CLR 77 66 69% 79 30.34 1026.9
20 08:53 SE 3 10.00 Fair CLR 73 66 79% 30.34 1027.1
20 07:53 Calm 10.00 Fair CLR 71.1 64.9 71.1 63 81% 30.34 1026.9
20 06:53 Calm 10.00 Fair CLR 66 64 93% 30.33 1026.6
20 05:53 Calm 10.00 Fair CLR 64 62.1 93% 30.31 1025.9
20 04:53 Calm 10.00 Fair CLR 64 63 96% 30.31 1025.8
20 03:53 Calm 10.00 Fair CLR 64.9 63 93% 30.3 1025.7
20 02:53 Calm 10.00 Fair CLR 66 63 90% 30.31 1025.9
20 01:53 Calm 10.00 Fair CLR 66.9 63 81 66 87% 30.31 1025.9
20 00:53 SE 3 10.00 Fair CLR 70 63 79% 30.31 1026.0
19 23:53 S 3 10.00 Fair CLR 70 63 79% 30.32 1026.3
19 22:53 S 5 10.00 Fair CLR 73.9 62.1 67% 30.32 1026.3
19 21:53 SE 5 10.00 Fair CLR 73.9 62.1 67% 30.31 1025.8
19 20:53 Calm 10.00 Fair CLR 77 63 62% 79 30.29 1025.1
19 19:53 Calm 10.00 Fair CLR 82 63 89.1 81 53% 83 30.29 1025.0
19 18:53 SE 5 10.00 Fair CLR 84.9 62.1 46% 85 30.28 1024.9
19 17:53 E 6 10.00 Fair CLR 87.1 60.1 40% 87 30.28 1024.9
19 16:53 Vrbl 6 10.00 Fair CLR 87.1 60.1 40% 87 30.29 1025.2
19 15:53 S 7 10.00 Fair CLR 87.1 60.1 40% 87 30.3 1025.6
19 14:53 SE 10 G 17 10.00 Fair CLR 88 64 45% 89 30.31 1025.7
19 13:53 E 9 10.00 A Few Clouds FEW049 88 66 88 72 48% 90 30.31 1025.9
19 12:53 Vrbl 3 10.00 A Few Clouds FEW044 84.9 64 50% 86 30.33 1026.5
Date Time (edt) Wind (mph) Vis. (mi.) Weather Sky Cond. Air Dwpt Max. Min. Relative Humidity Wind Chill (°F) Heat Index (°F) altimeter (in) sea level (mb) 1 hr 3 hr 6 hr
6 hour
Temperature (ºF) Pressure Precipitation (in)